GFSGBSN_925_rhum_177.txt.gz
RH
97 97 99 94 95 78 74 72 78 76 93 86 89 89 73 75 75 69 58 53 49 46 42 39 31 27 30 39 38 30 30 28 26 26 28 29 29 29 28 26 28 31 29 28 26 27 25
97 99 100 100 96 75 87 79 82 78 81 79 71 63 63 59 56 53 49 47 47 47 44 34 29 30 36 45 32 30 30 24 28 26 29 29 30 28 28 30 32 26 27 25 25 24 24
96 98 99 100 98 95 86 76 72 78 63 48 44 42 41 41 42 43 43 38 39 36 31 29 29 27 36 41 32 29 27 26 24 28 32 28 28 28 26 28 23 21 23 26 24 22 25
98 98 97 87 92 88 79 66 54 50 48 45 43 41 38 35 36 35 32 30 25 23 26 26 28 25 37 29 29 27 25 23 24 20 20 22 25 29 26 22 21 22 24 26 25 24 26
95 80 88 78 68 68 63 61 57 52 45 40 39 38 37 36 33 31 28 25 28 26 23 26 25 26 34 28 30 29 25 29 22 22 22 22 23 32 38 53 52 36 28 23 25 24 26
96 91 65 65 66 64 61 58 54 50 45 40 38 35 33 30 30 30 29 30 27 26 27 26 25 31 33 36 31 29 26 28 25 24 26 31 49 53 52 73 56 38 31 30 26 36 38
95 80 62 60 50 46 44 42 40 38 37 35 35 35 33 29 25 24 28 31 35 40 31 41 38 39 34 30 28 29 30 28 21 26 34 34 62 66 46 42 37 34 35 42 35 42 46
94 60 54 45 44 43 42 40 38 33 31 32 28 25 29 35 26 32 35 54 59 36 39 31 31 32 29 30 37 34 29 29 34 38 39 58 60 41 41 37 39 41 42 49 46 48 54
95 84 43 39 41 43 42 40 37 34 28 26 26 24 23 28 34 27 37 54 45 38 38 31 30 35 35 31 40 40 38 35 34 48 57 64 45 36 38 49 54 58 51 57 63 68 51
97 84 62 39 35 38 40 39 36 33 29 24 22 21 22 24 24 40 41 42 39 41 67 36 35 28 29 30 39 29 34 37 38 41 46 46 37 41 41 52 57 61 56 59 69 74 53
99 100 84 42 32 30 32 35 35 33 29 25 22 21 24 24 36 39 44 37 35 46 45 31 33 23 26 36 32 32 30 34 39 39 46 54 44 48 55 56 52 63 57 63 73 92 89
98 99 100 94 54 35 27 28 31 31 29 25 22 20 24 32 30 44 42 39 48 61 34 37 29 34 33 33 29 31 31 33 36 38 48 48 41 50 55 49 52 57 81 73 75 89 92
98 98 99 100 91 65 40 30 25 28 30 26 23 26 22 36 46 44 38 55 64 58 27 37 47 37 38 39 33 38 39 45 53 44 84 53 54 48 47 59 65 74 77 60 54 85 71
98 98 99 99 83 74 56 40 30 24 26 26 31 39 40 38 40 42 51 50 43 27 35 32 37 42 44 46 45 48 41 70 46 55 84 69 35 70 55 63 73 85 78 65 12 78 82
100 100 100 92 83 76 56 40 37 24 23 25 34 48 43 36 35 44 52 77 55 44 34 36 38 67 43 43 53 65 47 66 50 48 59 60 57 54 56 59 66 70 97 74 77 92 90
98 98 89 85 84 80 66 39 36 27 24 25 37 38 39 28 29 49 63 61 50 40 38 36 42 34 59 52 67 48 60 43 49 44 46 52 40 48 67 63 63 75 71 73 91 35 69
97 95 86 82 82 79 73 51 37 28 31 28 43 58 34 30 46 62 79 54 48 40 50 44 35 30 30 42 41 51 58 48 41 45 42 42 54 46 52 76 83 84 92 84 78 88 74
96 97 86 80 81 79 73 61 42 35 31 39 49 68 34 37 65 76 65 43 41 49 46 42 40 35 32 37 45 64 53 54 37 39 44 48 65 74 57 50 55 70 77 72 71 61 92
91 94 92 82 78 76 67 59 50 39 33 46 61 57 48 47 76 68 45 46 42 46 41 41 39 37 35 36 38 39 45 43 40 42 47 48 64 71 54 56 51 57 62 68 65 79 90
92 93 95 87 81 79 69 56 47 43 36 46 81 76 81 59 54 51 47 50 50 48 44 40 41 40 40 43 37 42 46 52 45 46 48 50 58 53 60 46 62 65 60 67 68 92 85
88 86 89 90 84 74 71 62 50 44 43 54 77 65 62 76 52 41 43 40 52 58 49 45 48 46 41 41 42 47 42 62 57 54 52 59 74 62 62 60 59 58 57 65 75 67 70
85 85 85 91 89 81 60 56 53 48 51 44 72 70 63 57 46 41 46 42 43 40 50 48 51 45 45 42 38 43 45 49 58 64 65 64 70 67 73 58 63 71 63 60 57 56 61
84 82 84 87 91 85 71 60 53 47 49 54 57 50 69 62 56 59 59 45 42 39 42 40 44 40 42 44 43 42 42 45 52 69 79 77 80 79 87 69 72 78 62 57 55 55 53
82 84 90 89 88 86 78 67 63 58 54 56 65 66 80 71 65 60 47 41 44 44 50 40 36 40 43 37 42 44 48 49 50 59 64 76 75 77 92 80 78 49 36 39 50 46 43
87 83 92 92 88 86 82 72 66 70 76 65 72 68 85 75 65 53 50 49 48 48 47 47 42 46 41 44 66 73 74 60 58 60 62 59 71 82 93 94 67 52 39 40 42 42 41
82 84 81 87 86 85 82 77 70 65 71 81 74 74 79 82 72 51 59 56 70 70 61 52 46 43 46 62 70 78 91 72 72 74 66 64 68 84 86 93 88 53 38 40 44 70 44
80 81 85 82 83 86 86 83 77 68 65 83 84 76 80 89 80 52 64 66 59 62 71 58 58 56 52 79 83 90 86 58 70 82 93 85 82 93 91 92 83 56 48 40 64 58 47
69 69 76 78 78 87 92 87 84 81 71 66 85 83 81 92 88 67 59 63 64 69 78 65 66 71 77 83 89 84 88 71 56 68 85 86 95 96 88 97 94 50 45 54 50 47 42
80 80 82 83 86 91 99 96 90 86 80 70 94 92 86 91 87 77 71 66 61 59 76 69 68 72 73 81 87 83 83 71 64 69 61 68 61 77 72 72 48 48 44 43 48 50 47

GFSGBSN_925_rhum_183.txt.gz
RH
96 95 86 92 90 98 99 90 84 92 89 86 78 74 74 71 65 58 54 51 46 42 39 38 31 30 29 36 35 29 26 25 25 25 29 29 29 27 28 32 30 33 31 30 29 29 27
88 96 97 96 95 89 96 95 82 80 77 66 62 63 61 58 55 52 50 48 46 43 38 30 29 30 27 37 30 29 26 22 24 25 29 30 30 29 29 30 31 30 32 29 26 25 27
96 94 91 82 58 54 46 49 51 50 50 49 50 52 52 50 49 46 45 45 42 34 31 29 29 25 36 36 29 27 23 24 23 23 26 26 28 25 25 24 24 24 21 27 31 28 26
93 87 76 63 58 56 54 48 42 40 42 40 37 38 40 41 40 37 32 28 26 28 26 27 27 23 32 26 26 23 20 20 22 22 22 23 23 32 28 23 34 24 28 24 30 40 25
64 59 61 62 58 56 52 47 42 41 41 39 37 36 35 34 31 27 28 28 24 25 27 26 24 24 27 24 25 26 27 27 22 22 25 27 27 40 38 38 41 39 27 24 24 47 41
58 58 56 51 45 42 41 39 38 38 38 36 34 33 30 29 28 31 28 25 24 25 22 26 26 25 29 35 31 27 26 25 27 24 30 36 45 42 54 66 47 34 24 25 26 42 44
43 43 42 41 39 40 38 36 34 34 34 33 28 34 30 27 28 30 28 31 24 34 32 38 39 36 33 29 28 28 30 27 24 41 42 47 52 56 45 44 34 34 34 36 35 56 46
65 43 38 39 40 39 37 35 31 30 29 27 27 25 30 22 25 26 31 50 58 36 32 32 30 31 31 34 30 33 28 28 39 49 46 45 47 42 43 45 47 47 42 37 44 51 52
96 94 74 42 39 37 35 34 30 25 24 23 24 27 26 27 27 28 38 54 43 36 33 26 32 31 33 31 37 39 38 33 36 42 54 45 41 40 43 53 45 58 48 55 58 68 50
99 99 93 71 40 34 33 31 30 26 23 22 21 23 22 23 24 29 37 39 35 40 61 28 30 30 29 33 34 30 34 35 40 39 45 47 40 44 50 55 55 32 61 62 67 69 41
99 98 98 100 79 33 30 30 30 28 25 22 20 20 23 25 29 33 39 38 34 38 47 26 31 26 31 36 34 30 32 37 44 49 38 45 48 53 55 59 53 55 68 70 77 94 90
98 98 98 98 99 77 36 27 26 27 26 28 28 18 22 26 27 41 38 37 43 61 32 36 38 42 28 40 36 42 34 36 40 52 53 53 46 53 58 58 63 65 64 67 85 88 76
98 99 99 100 100 98 48 32 24 25 26 28 34 29 20 27 36 38 37 42 64 50 24 32 41 44 40 47 30 48 45 52 47 32 62 57 60 56 55 59 63 51 60 52 52 67 61
98 92 91 95 100 96 51 38 28 23 24 22 38 31 30 36 39 42 40 40 30 29 30 32 41 40 37 47 47 47 54 70 45 56 78 57 33 62 60 64 61 89 62 64 13 42 60
94 86 76 76 78 88 83 35 26 22 23 23 26 36 28 32 38 47 40 66 36 35 33 37 32 57 35 41 47 52 54 73 54 50 32 50 34 57 63 66 56 69 65 63 78 87 84
100 93 84 75 68 59 58 48 32 26 24 23 29 38 40 39 46 30 56 50 50 46 40 38 25 26 47 48 47 40 54 42 47 46 52 44 34 50 72 66 67 68 69 63 80 24 30
95 100 91 81 72 60 50 47 40 31 34 36 42 45 42 35 34 55 64 53 51 43 50 42 33 32 34 35 36 46 43 40 46 46 44 50 43 36 56 74 73 89 92 87 73 78 58
94 95 98 90 74 68 58 48 44 37 31 45 54 50 47 42 51 76 58 45 40 46 50 41 38 33 35 41 44 64 45 44 45 43 46 50 59 64 44 53 57 64 57 67 70 48 93
89 87 91 94 86 64 60 57 47 41 32 48 65 68 55 42 60 56 49 47 45 50 46 44 41 38 36 36 33 42 46 46 43 43 47 47 59 72 56 54 52 68 76 65 65 79 93
88 85 86 92 88 80 62 54 49 49 40 48 78 71 73 68 58 48 46 41 42 48 43 42 41 40 39 41 40 38 45 51 44 48 53 46 55 55 70 54 62 60 61 80 68 92 80
85 85 87 87 82 78 69 58 51 48 51 51 75 60 71 76 50 49 46 50 48 44 50 44 45 44 44 48 45 48 49 65 57 53 56 54 63 66 64 62 58 55 57 69 85 69 67
85 86 89 89 84 77 67 62 60 49 54 46 66 63 70 65 54 44 49 51 56 52 54 50 52 47 51 46 48 54 53 59 58 67 64 71 71 76 83 68 69 78 72 67 60 62 68
79 82 83 89 86 80 70 64 60 55 49 54 68 63 63 67 65 61 60 49 52 47 50 46 52 49 52 50 41 41 45 46 52 72 74 80 79 82 89 76 76 68 69 71 70 68 60
73 76 80 85 86 84 81 75 64 66 62 62 72 74 73 55 73 65 57 49 49 49 50 45 48 47 42 44 48 51 52 51 65 66 67 85 79 83 94 78 72 41 46 56 61 60 58
72 75 76 78 83 87 86 82 75 63 72 67 79 73 82 68 71 63 58 51 50 52 51 48 45 43 45 52 68 70 78 66 66 68 74 73 78 84 96 96 68 42 49 56 60 46 52
68 74 71 72 78 80 80 84 83 74 63 75 76 79 82 79 67 58 63 58 66 68 67 55 50 49 53 67 72 74 74 69 80 80 74 76 75 84 95 98 84 43 39 38 42 66 46
64 68 69 73 67 69 72 79 86 83 76 66 78 75 83 87 79 63 68 68 68 72 76 63 58 57 56 79 84 90 82 70 75 83 97 88 84 90 90 95 83 57 42 43 60 55 49
73 68 69 70 70 70 72 79 86 93 83 76 72 80 76 92 88 74 66 67 70 76 78 69 69 75 82 81 89 86 92 82 72 70 86 86 92 96 84 95 92 52 54 58 47 46 48
94 84 81 84 83 80 80 81 83 92 94 89 73 78 82 87 80 71 64 58 60 56 73 76 69 76 74 81 90 88 92 91 81 83 71 75 64 82 74 72 49 53 46 44 46 52 49

GFSGBSN_925_rhum_186.txt.gz
RH
97 96 95 95 95 97 98 97 87 91 90 84 76 72 69 65 62 56 54 48 45 40 35 32 29 31 28 34 34 27 24 23 24 26 29 28 27 26 30 33 32 34 33 32 31 28 27
94 91 87 73 74 70 57 59 64 68 70 74 71 65 61 57 55 53 50 48 45 39 31 30 29 29 26 33 29 25 23 23 24 26 28 31 28 27 31 30 33 34 33 30 27 28 27
90 77 74 66 62 52 43 44 48 47 50 53 56 56 53 51 49 46 46 44 37 30 28 27 27 24 32 33 26 26 23 24 23 23 26 27 28 23 24 26 25 28 25 27 33 38 26
70 66 60 58 55 51 46 42 43 46 44 41 41 41 42 42 39 36 31 27 28 28 26 27 27 24 28 24 24 24 21 21 24 24 24 26 25 38 30 25 34 25 28 22 31 45 31
59 57 53 45 40 39 39 41 42 41 40 37 34 33 34 34 30 27 29 28 25 27 26 25 24 22 25 21 24 26 28 27 23 23 26 21 25 40 36 34 38 36 24 24 24 49 44
53 47 43 42 42 39 36 35 36 34 33 32 32 34 30 28 30 31 29 24 21 23 22 24 26 23 28 33 30 28 26 25 26 23 28 34 41 39 53 66 50 29 21 22 24 43 49
86 51 40 39 41 40 37 32 31 31 29 27 26 29 28 27 28 27 26 27 24 34 31 37 38 36 34 29 28 29 31 27 26 44 41 42 51 57 48 47 36 34 31 32 31 58 48
96 95 73 39 38 38 38 33 29 27 25 24 27 26 26 24 26 22 26 51 57 36 30 32 30 31 32 34 30 34 28 27 38 42 39 44 52 43 45 50 47 43 38 32 41 53 52
99 98 94 75 41 35 34 33 30 26 23 24 23 24 24 24 24 26 35 50 43 35 30 22 32 32 32 31 38 39 40 34 33 41 53 44 42 42 43 54 41 61 49 56 60 66 52
96 99 99 100 48 36 30 29 29 28 25 22 23 23 22 22 21 27 38 40 36 40 60 27 29 30 31 35 32 31 34 34 42 38 47 53 43 45 51 60 53 28 65 64 69 63 42
100 98 99 99 100 42 30 28 27 27 26 31 27 21 25 25 26 30 36 36 34 38 47 27 33 27 30 35 37 28 32 40 47 50 37 48 50 55 63 64 53 63 71 72 79 93 88
98 98 99 98 98 95 44 25 25 26 25 32 30 22 25 24 25 39 36 38 39 61 35 32 37 45 28 41 38 45 33 37 43 47 56 56 49 56 60 70 66 62 58 64 80 87 66
98 99 100 100 100 100 58 35 26 24 24 28 33 27 20 29 42 41 40 38 65 49 23 31 40 45 38 46 32 51 45 53 48 28 55 50 60 60 58 57 62 46 58 55 51 65 56
99 98 100 99 92 86 80 38 23 23 24 24 35 25 26 34 39 45 32 40 28 25 25 33 42 38 36 50 44 46 51 64 47 54 74 51 31 61 65 67 60 84 62 63 14 42 54
99 100 98 96 83 73 52 34 28 22 21 24 29 31 28 37 43 44 38 57 32 32 31 37 29 53 30 39 43 48 52 69 51 50 26 44 30 60 69 70 55 71 62 56 76 88 82
99 98 78 70 73 78 60 47 31 28 26 23 31 36 42 40 44 28 50 45 44 44 38 36 22 24 39 44 43 32 47 41 45 47 50 40 34 52 76 66 73 67 62 61 80 21 32
89 89 95 73 49 56 69 61 45 32 30 36 38 42 45 43 29 51 58 51 48 44 48 36 30 34 34 31 34 41 38 38 46 47 48 45 42 37 60 78 76 92 94 84 71 75 59
86 85 85 88 71 46 44 51 51 42 31 45 51 50 49 36 48 76 52 43 40 48 51 41 36 31 32 38 40 59 42 43 45 46 46 48 52 58 41 54 54 65 58 59 70 52 91
88 86 87 84 79 70 54 42 43 48 38 47 68 68 57 43 59 52 51 48 46 46 47 46 42 36 36 38 32 42 46 46 49 46 51 49 58 73 58 57 54 72 74 61 64 77 90
89 85 87 86 78 65 62 58 45 45 50 55 72 64 68 68 56 43 40 37 39 48 44 43 42 40 39 40 40 40 46 52 46 47 54 45 55 55 70 53 59 64 67 76 64 91 77
85 85 88 87 81 72 62 55 57 47 49 52 75 60 70 70 50 50 46 43 42 39 51 45 44 44 40 48 47 48 48 64 57 53 58 53 62 63 61 58 56 54 54 78 82 68 64
79 81 86 86 87 82 72 60 54 53 48 45 64 62 73 66 54 46 50 54 50 50 54 51 50 45 49 47 48 52 56 62 62 68 62 73 70 76 83 69 76 82 73 63 68 70 63
77 73 78 85 85 84 80 73 58 52 48 57 72 68 65 70 67 57 57 47 50 50 53 46 52 52 52 51 42 41 46 50 54 72 74 80 79 82 88 79 77 72 69 72 73 68 63
72 70 76 80 81 84 82 81 74 62 61 62 75 77 73 53 75 68 56 53 52 52 47 47 50 47 44 50 51 53 55 54 66 67 68 85 78 83 94 79 74 43 49 62 64 64 62
67 71 74 77 76 76 77 77 82 76 66 66 78 75 83 68 74 67 64 59 50 51 53 51 50 44 48 52 65 70 75 70 70 71 78 73 78 83 96 97 69 44 56 66 64 46 57
71 67 70 70 72 71 70 73 76 82 74 70 73 79 81 81 68 63 64 59 69 70 67 57 52 50 54 70 74 75 70 62 79 84 78 78 76 83 97 100 85 41 39 41 43 66 44
86 70 68 67 67 68 69 73 77 80 82 73 72 70 79 87 80 68 73 70 68 72 75 66 60 58 57 81 86 90 82 69 73 86 98 94 88 89 89 96 84 56 40 44 60 50 47
93 87 77 74 73 73 76 79 82 87 92 84 73 74 69 89 87 74 71 68 72 78 76 70 70 76 83 82 89 87 92 84 76 73 88 91 94 94 82 91 92 57 54 58 49 50 49
100 100 98 93 89 86 88 89 89 97 100 100 84 81 84 80 79 69 62 60 56 56 73 78 71 76 75 81 89 87 92 92 84 85 76 77 68 83 75 71 50 58 50 50 54 52 47

GFSGBSN_925_rhum_189.txt.gz
RH
93 84 77 85 69 61 74 81 88 97 93 86 83 74 62 59 58 57 52 47 44 38 33 29 28 29 24 33 31 25 23 24 25 26 28 27 24 26 30 32 33 36 34 31 30 29 29
92 62 62 65 47 45 45 50 57 64 71 72 71 66 61 56 53 52 49 45 41 34 29 27 28 26 23 30 26 25 24 23 24 25 29 28 27 28 31 32 34 34 34 30 29 36 31
90 87 61 54 50 45 43 44 45 46 47 49 53 54 54 52 49 48 46 41 33 30 27 26 22 22 29 29 26 26 23 24 23 23 26 27 28 23 25 28 32 26 28 27 38 40 26
92 80 60 52 43 40 40 41 41 38 38 36 37 39 42 42 41 38 33 30 28 27 27 26 22 20 27 22 24 22 20 22 25 23 24 27 26 38 29 29 30 26 26 21 34 43 31
92 67 56 54 46 42 40 41 38 36 35 33 36 33 32 32 30 28 28 27 26 27 26 24 21 21 24 21 24 26 26 26 22 23 23 21 25 38 34 33 37 32 23 22 23 50 45
95 93 74 51 50 40 36 36 36 34 29 28 30 30 29 29 31 29 27 24 22 24 22 22 23 22 24 31 29 28 27 27 26 24 26 30 38 40 52 66 48 25 20 22 22 41 48
95 95 93 59 42 40 34 30 29 27 26 26 29 29 28 28 27 24 24 29 24 32 30 37 37 34 33 30 27 29 31 28 28 40 34 39 50 56 49 47 36 31 27 27 28 56 46
100 97 94 63 44 36 34 30 26 24 25 27 28 28 24 25 23 19 24 48 48 31 30 32 30 31 31 34 30 32 30 24 32 35 36 47 53 45 46 51 45 40 32 29 39 52 46
95 100 99 72 38 35 31 31 29 25 24 24 23 25 24 25 24 23 32 47 42 34 28 21 31 33 32 31 38 39 39 33 34 44 54 45 44 44 42 55 42 67 46 57 55 62 51
99 98 98 100 59 28 28 27 28 28 25 28 20 20 22 22 21 28 45 44 39 36 59 26 27 30 29 35 32 32 34 34 45 40 50 56 46 46 52 61 52 27 68 64 66 54 35
98 99 98 99 100 72 24 23 25 26 26 30 27 19 22 19 22 36 42 42 39 38 49 24 32 27 30 31 38 26 32 39 46 48 37 52 52 53 62 66 55 55 71 72 78 79 76
100 99 97 97 98 92 53 27 22 24 24 32 26 20 21 22 25 42 38 45 39 62 32 28 32 43 26 39 38 46 33 39 44 44 57 58 52 58 62 71 66 71 54 63 74 77 59
100 100 99 94 85 60 33 26 24 23 22 29 25 22 18 29 43 40 39 35 66 52 23 31 37 40 38 45 32 52 42 54 46 28 51 46 59 62 61 56 60 44 58 60 56 66 48
99 100 98 98 81 66 34 26 20 20 22 21 28 22 28 36 43 46 27 42 32 21 22 34 42 35 38 48 42 42 45 56 45 49 60 47 35 64 68 68 57 74 59 64 22 44 48
96 99 100 67 65 66 48 34 26 23 21 23 26 26 34 42 40 34 36 58 30 26 31 32 25 48 28 36 40 44 48 61 51 48 24 37 30 63 76 71 56 72 66 53 76 89 70
87 91 90 76 66 53 54 52 39 28 31 34 33 31 41 37 32 22 48 40 42 44 38 34 21 24 35 40 39 27 41 40 46 48 47 40 34 55 80 69 76 62 60 58 75 28 39
88 85 85 79 65 59 55 47 46 38 28 37 40 41 47 44 24 50 59 47 44 45 52 36 28 32 32 27 30 36 34 37 46 51 45 42 40 36 62 74 72 86 90 79 68 66 58
89 86 87 77 66 59 54 54 46 44 36 39 47 50 51 37 48 73 51 42 43 50 51 41 35 30 28 36 35 54 36 40 46 48 43 45 45 50 36 56 55 65 60 54 68 56 82
92 85 86 82 76 66 56 52 48 52 48 50 71 70 53 33 58 49 52 49 47 45 46 44 40 38 36 35 33 40 43 47 50 46 48 51 55 70 58 58 57 76 72 57 61 71 88
86 89 86 83 74 67 58 53 53 44 52 54 68 60 66 69 56 39 37 35 38 50 44 45 41 40 39 40 41 38 44 52 49 45 52 44 54 54 62 48 60 68 76 67 59 82 73
78 77 83 85 82 76 68 57 48 48 46 49 76 62 70 69 50 48 44 38 38 40 51 47 47 44 38 44 46 48 48 63 56 55 58 52 59 60 58 57 55 52 53 81 74 63 65
77 76 74 82 83 80 76 66 54 48 40 44 62 62 75 68 56 44 51 54 45 42 52 51 46 44 49 49 48 53 56 63 60 69 61 73 65 77 83 71 78 82 72 61 69 62 56
76 69 71 80 81 79 77 76 66 53 47 58 74 73 68 69 67 56 54 46 50 51 51 46 50 52 52 49 44 40 46 52 55 70 72 75 76 84 85 77 78 72 74 72 68 67 59
70 67 76 76 78 75 74 73 78 68 62 65 78 80 72 50 76 67 54 54 52 54 45 50 52 48 44 52 54 57 58 57 66 68 66 85 78 81 92 77 77 37 52 61 64 62 60
86 68 71 73 74 73 70 70 74 78 69 65 75 78 83 70 72 64 64 62 52 51 53 53 54 46 53 52 68 68 76 72 73 74 79 72 79 82 93 97 70 42 62 70 67 48 55
88 82 67 70 70 70 71 70 75 80 83 71 69 74 80 84 64 65 68 62 70 71 67 59 54 53 57 72 72 75 72 56 78 89 83 79 77 79 98 100 87 37 40 45 48 62 50
97 91 76 68 69 69 69 72 74 81 87 84 73 71 74 84 80 72 75 72 69 72 75 70 61 60 59 82 85 90 83 64 70 88 97 91 88 90 88 97 84 58 41 46 57 44 51
100 100 98 86 79 78 79 77 81 81 89 92 86 78 73 88 85 73 71 71 74 79 77 71 70 76 83 82 89 86 93 83 76 73 89 89 95 91 80 90 91 56 52 57 47 52 55
87 90 98 100 100 99 97 92 91 97 99 95 90 84 86 84 80 64 58 61 59 58 74 78 74 76 77 82 88 88 92 93 83 85 80 77 66 82 74 69 50 59 50 48 54 54 49

GFSGBSN_925_rhum_195.txt.gz
RH
90 84 78 89 77 64 60 65 69 73 77 72 69 70 70 68 69 65 59 55 51 46 36 32 31 35 30 26 23 25 24 23 18 27 24 24 21 15 15 18 20 22 23 20 19 18 18
71 59 63 71 55 57 55 50 50 51 54 57 58 59 59 58 57 56 55 52 48 38 32 32 30 28 27 29 25 27 24 25 20 25 24 23 20 16 18 20 22 22 21 19 19 19 20
64 50 47 47 53 52 45 42 40 38 38 40 44 48 50 50 49 50 48 42 34 31 31 30 25 27 23 26 27 25 24 26 22 27 25 26 25 19 18 23 19 18 21 20 19 19 18
74 48 43 41 45 48 46 43 36 31 35 37 36 37 38 38 37 34 32 31 29 31 27 25 21 24 24 23 28 25 26 25 23 20 30 28 26 21 20 18 15 16 17 18 22 19 19
96 77 40 35 34 36 37 35 30 28 29 32 32 31 29 29 31 31 29 28 26 23 22 22 26 23 23 23 26 28 27 26 23 21 24 20 25 24 23 20 18 16 18 15 22 21 20
96 95 47 36 30 29 28 26 26 28 30 31 32 30 29 29 27 27 23 23 23 22 19 21 20 29 21 28 31 31 25 20 26 24 25 25 21 31 24 65 58 23 13 13 13 24 19
98 96 97 48 35 30 27 26 24 29 29 27 29 28 28 27 21 23 24 30 29 23 29 32 31 28 30 28 28 27 33 26 22 20 31 26 30 50 30 29 26 19 17 16 12 26 23
98 100 99 92 51 33 30 26 24 23 25 21 24 23 24 25 23 21 22 32 48 36 25 25 28 27 30 35 24 27 28 22 22 23 23 29 38 33 33 28 25 20 18 14 16 27 24
94 99 99 98 86 46 28 25 24 23 26 22 21 24 23 22 23 25 36 48 35 38 24 23 28 28 29 30 30 30 26 23 20 25 26 37 38 35 30 28 24 28 24 23 33 28 22
92 95 98 99 82 52 28 27 25 25 28 26 18 19 18 18 26 30 43 42 41 40 60 24 24 29 27 29 27 28 31 28 25 31 33 36 36 34 31 31 34 34 42 38 35 36 34
96 96 96 98 98 46 30 23 24 24 28 26 21 16 17 15 28 30 40 33 49 45 95 22 25 23 23 27 29 26 30 27 28 34 34 49 37 35 33 44 40 49 45 43 48 45 54
99 99 90 86 95 61 24 22 20 21 24 26 20 20 20 28 36 36 31 43 50 75 70 41 25 27 22 22 25 23 24 26 27 27 33 42 40 43 46 45 46 47 43 38 46 46 88
98 95 96 81 58 52 32 20 18 19 20 20 23 23 20 31 48 43 40 41 91 74 20 44 33 25 26 25 22 26 24 28 31 50 43 36 43 46 46 42 42 42 72 100 96 98 43
100 99 68 71 73 56 48 40 27 20 18 19 24 25 31 38 43 37 39 31 70 20 23 28 30 26 28 28 26 26 26 29 24 27 30 52 67 54 49 50 49 53 81 100 80 45 38
82 70 62 57 57 58 50 49 45 30 30 32 26 36 46 46 30 24 23 95 24 21 24 28 25 59 25 26 30 35 28 31 30 30 31 23 39 53 55 50 54 58 80 40 80 54 49
94 76 67 60 55 53 48 48 48 39 35 33 38 32 43 34 25 38 29 30 29 32 29 28 26 22 54 29 58 25 31 28 29 31 26 29 59 42 58 52 49 52 38 74 79 66 68
87 83 77 72 65 55 47 41 39 47 46 39 46 30 40 31 23 24 62 31 32 34 38 31 21 20 18 23 22 22 27 35 30 32 26 21 31 48 50 56 52 50 59 52 56 41 70
77 77 77 72 66 62 56 44 36 35 43 45 45 37 46 29 36 28 31 33 39 34 40 33 26 21 18 20 24 30 30 31 30 27 25 23 26 38 32 37 36 43 42 29 62 72 53
76 71 73 77 71 64 56 48 37 34 38 63 37 36 47 39 53 29 35 35 35 37 33 29 26 27 24 22 29 27 30 35 34 30 27 29 34 43 47 46 42 45 38 34 28 38 83
77 74 68 82 75 68 64 54 40 31 38 54 34 56 35 30 27 23 25 26 33 41 34 32 29 29 28 27 26 32 33 44 40 36 49 36 31 33 31 38 41 46 43 39 33 66 51
76 72 70 80 75 69 66 60 49 31 33 50 38 46 46 49 29 30 33 28 28 33 38 35 36 31 25 26 29 31 30 45 44 45 42 36 41 32 31 31 31 36 37 44 53 46 67
78 75 68 76 76 70 65 62 53 32 30 44 39 36 40 34 35 32 40 32 31 32 33 35 37 31 30 27 27 32 33 36 38 46 47 40 42 44 39 31 37 45 39 36 36 41 39
80 79 65 69 69 70 66 63 59 48 40 46 58 57 44 47 35 28 23 28 32 35 33 32 33 34 37 32 26 25 29 32 32 44 49 48 46 47 58 46 49 53 42 39 36 32 32
85 83 75 64 66 67 67 67 64 62 56 66 72 60 40 22 32 25 35 36 36 37 36 38 38 37 38 33 33 32 31 33 34 36 36 45 48 44 55 42 52 22 25 28 31 32 29
90 90 87 76 65 65 66 68 67 65 65 71 77 67 50 36 31 31 37 41 38 39 46 41 38 36 34 41 44 44 46 53 49 40 44 42 45 51 60 52 33 29 22 38 40 28 26
100 99 98 96 81 70 68 68 70 72 70 79 73 64 60 56 33 44 44 44 44 37 44 48 46 42 42 42 47 53 41 26 42 65 60 50 50 52 49 69 47 32 35 35 40 42 23
99 99 100 100 100 96 85 78 75 76 80 86 84 70 65 59 43 54 45 48 50 52 52 53 51 52 48 50 57 53 42 29 37 38 79 75 69 72 66 66 42 27 31 36 38 25 32
97 98 96 97 100 100 100 99 94 91 97 96 87 82 76 61 54 55 54 54 53 55 56 54 53 59 59 59 53 47 48 34 40 29 48 52 65 70 63 60 57 29 39 40 30 30 34
91 94 89 96 98 98 96 95 98 100 100 100 93 88 86 80 60 73 64 60 54 51 54 53 50 56 49 54 48 50 52 53 46 46 37 48 36 31 43 37 29 36 32 27 29 33 34

GFSGBSN_925_rhum_198.txt.gz
RH
92 68 56 56 57 72 62 57 58 60 62 62 63 61 60 61 62 60 59 56 52 49 44 36 39 36 35 32 26 24 25 27 28 22 23 25 23 17 18 21 20 24 23 21 20 19 18
94 94 69 51 47 45 44 41 38 41 46 50 53 56 56 55 53 53 51 49 46 42 33 34 35 32 33 36 23 26 26 26 26 20 23 24 28 24 20 22 27 23 23 21 18 19 21
95 94 92 56 44 40 41 41 38 36 38 40 41 44 46 46 46 47 45 42 36 32 32 34 28 28 29 34 26 27 27 28 22 22 27 28 25 25 21 26 18 22 25 22 20 19 20
96 96 95 74 46 38 34 32 29 30 33 35 35 35 36 34 32 32 32 30 30 29 27 27 22 26 39 23 27 26 25 23 23 18 19 20 23 24 23 22 18 21 20 28 23 19 23
95 96 96 94 49 39 33 26 26 28 30 32 33 32 30 32 30 28 28 27 26 26 23 23 24 34 29 26 26 28 24 25 22 22 20 15 24 28 26 32 25 19 29 20 28 20 20
99 96 96 96 92 46 34 29 26 29 28 29 30 30 30 28 24 24 23 21 22 23 24 23 24 36 25 31 28 28 24 25 23 22 30 28 29 35 31 85 82 30 19 15 19 27 20
88 99 98 94 94 93 41 36 33 32 30 24 26 26 27 26 22 23 23 30 37 35 28 44 37 30 31 29 25 27 26 28 21 22 39 29 51 62 42 33 30 26 23 24 22 25 26
86 90 99 98 74 60 62 35 31 30 32 25 23 25 23 24 24 23 25 39 51 36 32 29 31 30 30 32 34 30 26 24 28 32 28 51 48 39 35 32 30 27 24 24 21 27 26
98 88 93 100 98 52 29 27 27 28 30 28 19 21 21 21 23 24 30 43 31 37 33 27 28 28 31 32 32 36 30 25 28 34 35 53 44 34 30 37 34 30 36 41 38 36 27
100 98 92 87 93 61 26 22 22 24 28 25 21 19 17 19 30 31 45 36 36 34 69 30 26 31 27 33 31 27 31 31 30 34 39 40 35 34 32 37 40 44 46 41 44 58 72
100 100 100 99 98 64 38 28 21 20 23 24 20 17 19 26 29 37 51 39 46 51 74 28 28 23 24 32 32 30 29 31 32 34 41 54 39 38 36 51 42 58 43 43 48 61 55
99 100 97 99 96 88 32 22 22 21 20 20 19 21 16 25 33 33 40 50 53 87 58 38 27 27 30 23 26 26 28 27 30 33 40 46 40 48 50 44 46 46 50 39 50 72 82
95 87 60 55 54 56 56 40 27 23 22 20 24 28 26 27 43 32 37 53 88 70 21 43 38 25 28 27 26 26 27 32 44 49 56 43 49 50 46 50 44 45 78 71 74 79 73
98 72 61 57 53 47 44 49 44 32 30 32 26 26 32 34 33 43 49 54 56 21 30 28 30 26 34 30 27 28 29 43 26 31 54 80 78 58 49 54 55 60 84 80 58 83 81
94 75 67 62 56 48 44 37 42 39 37 30 31 38 47 40 34 30 50 81 50 38 26 29 28 48 30 28 36 37 28 44 31 27 43 40 62 55 53 49 56 61 80 50 71 70 78
83 76 73 67 62 54 46 38 35 34 37 31 42 36 42 28 18 44 60 42 38 32 28 28 30 25 52 32 51 31 33 29 34 31 29 33 72 45 61 52 52 55 43 76 96 57 83
68 70 74 70 63 59 53 42 30 33 35 36 51 48 48 26 33 50 77 40 34 33 45 39 24 22 19 27 26 29 38 39 32 33 28 22 45 55 53 68 72 60 74 62 64 74 90
75 65 72 71 66 60 54 49 34 29 36 48 50 59 35 25 67 47 50 38 38 36 40 34 31 23 20 22 26 34 35 35 28 28 27 29 39 64 48 42 40 43 54 48 85 71 82
77 70 70 74 69 62 56 51 38 28 37 57 57 46 43 34 77 47 35 35 37 36 34 28 26 27 25 23 28 28 33 35 35 31 31 33 49 69 53 51 44 51 46 44 35 56 84
78 72 73 77 72 65 60 53 41 29 35 50 53 76 56 46 35 29 27 27 36 41 36 30 30 29 28 27 25 31 33 44 37 35 47 42 40 45 60 47 58 54 51 48 47 83 77
79 78 68 71 71 68 62 58 49 30 31 52 54 58 51 61 41 32 33 28 30 41 42 33 37 35 30 28 28 35 33 51 48 47 47 43 56 41 41 40 36 46 48 53 56 47 66
81 79 68 64 66 66 63 61 53 29 40 44 64 57 46 36 34 33 44 41 33 32 40 40 43 34 36 33 29 33 35 44 50 56 56 47 60 45 52 43 45 49 47 43 47 48 44
91 86 82 69 63 63 63 62 58 48 40 52 53 52 57 44 35 32 33 29 32 34 33 32 37 35 40 37 35 35 30 35 39 56 62 62 64 57 76 46 49 69 53 45 43 40 38
88 92 89 85 71 64 63 63 62 59 58 63 71 69 59 42 36 31 33 34 37 38 43 38 37 40 42 33 36 34 36 37 39 44 48 54 57 56 81 47 73 35 27 33 38 39 34
90 99 95 95 91 75 66 64 64 63 64 76 71 73 69 63 40 37 35 38 41 40 47 44 41 43 38 41 55 54 54 53 53 42 43 47 55 71 85 85 55 41 33 37 41 40 32
97 98 98 97 98 98 90 77 70 67 66 75 76 69 67 72 52 49 50 43 54 48 46 50 46 43 42 58 58 67 70 51 69 69 64 60 54 74 65 84 80 36 36 35 41 55 42
98 94 92 98 99 99 100 100 95 85 81 80 86 70 75 75 56 55 56 64 56 56 63 56 55 56 51 69 77 75 61 30 53 71 91 82 78 88 81 86 66 33 40 38 41 47 43
96 97 98 98 98 98 98 97 99 100 98 90 87 86 82 78 67 58 55 63 59 62 67 60 60 68 70 75 71 67 61 44 46 39 69 77 88 92 81 81 75 40 40 43 41 38 39
95 94 95 96 95 94 97 97 98 98 97 99 98 93 87 91 75 71 67 59 61 58 66 61 64 65 64 71 69 67 68 58 54 65 38 52 48 53 61 66 42 37 34 34 36 40 43

GFSGBSN_925_rhum_201.txt.gz
RH
95 94 94 67 57 56 48 43 46 50 54 57 58 59 58 59 59 58 56 53 51 49 46 40 34 40 40 41 32 24 24 22 27 32 42 33 31 23 22 25 24 29 24 23 20 20 20
95 95 94 92 56 47 40 36 34 38 41 42 46 50 51 51 50 49 49 48 46 44 36 35 36 37 36 43 24 25 26 25 25 27 27 25 33 28 23 25 29 26 25 23 20 21 21
95 95 96 97 84 56 48 35 30 31 36 38 38 40 41 42 42 41 40 39 35 32 32 32 33 32 36 39 26 26 27 26 26 26 30 24 24 26 26 25 22 25 26 22 21 20 22
92 95 96 96 93 60 48 40 38 35 34 34 33 32 31 32 32 31 31 30 30 30 28 29 27 28 46 25 25 25 25 23 19 18 17 21 21 25 23 22 21 22 27 30 24 21 21
96 81 95 95 91 89 48 40 36 35 31 31 30 29 30 30 28 26 28 26 26 28 25 25 28 38 42 29 27 25 28 27 24 19 15 21 22 28 28 32 37 24 30 27 28 22 21
96 61 42 90 66 36 33 31 32 35 32 28 29 28 28 28 25 23 22 22 24 27 27 24 27 36 30 51 34 28 23 25 24 24 30 25 36 50 50 76 62 30 26 22 26 27 23
98 94 34 41 59 31 29 28 27 29 32 27 26 24 23 23 23 21 20 26 35 37 32 39 38 32 34 30 30 27 26 26 23 26 28 29 53 62 42 37 29 26 23 24 29 26 24
98 100 88 26 28 30 27 26 26 25 28 28 23 24 23 22 25 23 22 40 45 33 30 28 31 34 30 33 43 33 25 25 30 32 32 54 53 39 36 31 30 28 24 33 28 30 30
99 98 99 91 46 26 24 24 24 24 25 23 20 20 22 20 25 23 26 37 37 36 31 27 30 30 31 31 34 35 36 25 33 36 45 63 45 35 31 40 38 49 36 43 38 43 34
99 99 98 99 93 45 24 23 22 22 23 22 19 17 18 20 29 35 40 37 34 34 66 33 30 32 28 33 30 26 29 29 30 40 42 47 37 35 36 46 47 42 50 45 53 44 32
100 99 100 100 100 82 28 20 20 19 20 19 20 19 18 19 30 46 43 40 37 48 59 29 29 21 24 32 32 27 27 29 32 40 38 49 48 47 57 53 47 62 46 47 50 63 59
100 100 100 98 96 82 67 32 20 20 17 18 21 24 18 29 31 34 37 42 46 77 48 46 27 26 29 24 26 26 28 29 30 36 45 50 43 55 51 47 50 47 50 58 74 83 66
100 96 80 69 62 56 50 49 44 33 29 25 19 22 26 28 50 43 40 59 75 60 24 39 36 27 29 27 28 27 30 35 41 41 47 51 56 52 50 54 45 59 61 58 57 66 46
88 74 71 66 64 54 48 41 44 43 36 30 29 22 31 36 38 34 45 54 43 24 31 28 31 28 34 31 27 32 30 35 29 38 63 66 44 57 52 55 64 68 61 64 22 70 78
76 72 66 63 61 61 56 48 39 35 38 36 34 35 43 44 37 30 55 73 55 36 28 31 31 42 33 28 40 35 32 56 33 32 43 60 46 57 58 52 50 51 53 49 67 86 72
68 68 74 66 60 56 54 47 34 34 37 34 41 43 43 37 26 48 55 51 39 35 36 30 30 29 52 33 45 34 33 34 34 34 34 36 53 54 62 55 54 57 51 41 79 20 67
74 66 73 70 64 58 54 47 28 26 38 41 54 59 43 32 41 56 69 41 42 35 46 35 30 23 22 26 26 30 35 38 32 34 28 24 39 56 59 77 68 62 71 64 68 82 71
76 68 71 68 64 59 54 48 32 22 27 52 61 47 44 36 53 69 46 39 36 39 42 36 31 23 22 24 28 30 32 32 32 34 30 26 48 72 50 46 51 52 52 46 66 51 85
78 66 68 69 65 58 53 48 37 23 32 56 66 59 41 32 58 51 36 36 38 38 37 31 29 28 26 24 25 32 34 36 35 32 34 33 41 68 56 58 49 49 50 52 52 74 82
81 80 66 64 63 61 57 49 35 31 33 44 68 60 58 59 50 36 30 30 38 39 37 30 32 30 30 30 26 35 40 44 38 37 45 37 46 46 51 46 66 55 53 56 49 80 72
85 84 75 67 64 61 59 54 41 27 39 51 68 59 50 56 41 37 36 31 32 35 42 34 37 36 33 30 30 35 39 54 48 47 43 46 53 50 48 47 49 52 49 59 63 47 57
91 89 84 77 66 62 59 55 49 30 40 39 63 55 61 51 39 35 42 37 34 34 37 40 40 37 38 34 32 35 37 46 50 60 54 53 52 53 57 48 51 51 50 50 50 45 45
89 94 96 90 83 70 62 58 54 47 35 60 61 59 64 49 43 35 40 34 35 32 36 37 41 40 41 43 38 37 37 39 43 60 65 64 65 66 77 50 51 66 55 46 51 52 48
99 99 96 94 95 89 77 66 60 57 60 60 74 81 72 49 43 38 34 35 37 38 40 40 38 41 40 36 42 41 42 42 48 57 54 70 65 66 84 53 72 36 36 44 47 44 41
96 97 98 98 90 96 95 88 74 63 64 70 65 74 86 68 59 44 46 40 43 42 48 45 44 45 44 43 56 63 62 58 56 50 65 56 66 72 85 89 60 42 34 39 36 36 46
95 92 94 92 97 98 94 98 91 83 68 69 75 66 80 83 58 53 57 49 60 58 58 53 49 46 45 61 67 73 69 64 65 68 68 60 60 72 81 89 85 40 36 38 37 51 45
97 97 97 99 99 98 98 96 91 89 87 81 78 81 78 88 74 57 64 72 65 66 70 62 57 56 54 75 82 86 74 42 69 74 81 80 80 83 78 89 80 51 37 38 48 47 43
90 93 95 95 95 96 96 94 93 94 89 90 86 91 88 93 87 63 60 67 69 71 78 66 63 70 77 80 87 80 80 55 51 61 76 77 88 95 87 94 85 41 38 48 65 59 54
96 96 96 94 95 96 96 96 96 95 74 81 100 98 99 99 83 76 67 66 66 58 74 70 69 70 73 79 81 81 78 71 65 72 48 58 57 69 66 71 44 44 73 76 74 79 88

GFSGBSN_925_rhum_207.txt.gz
RH
98 50 50 42 80 94 74 50 39 43 48 52 52 54 56 57 57 58 55 56 59 57 49 49 42 40 52 54 52 25 26 27 27 36 41 52 51 38 35 31 30 29 29 25 23 23 23
98 79 41 35 38 42 36 34 39 40 43 45 46 44 47 48 49 51 52 50 48 45 44 40 38 48 44 49 27 27 28 28 28 32 34 42 49 40 38 31 28 30 26 24 22 23 22
97 96 56 34 30 30 28 31 35 37 38 38 37 38 39 37 37 38 38 40 41 37 33 35 34 45 41 42 28 29 28 27 29 28 31 34 36 36 33 35 27 27 27 24 23 22 23
99 98 90 61 32 26 27 29 28 34 34 33 35 36 34 34 33 33 29 30 32 32 31 35 36 42 57 27 29 28 26 25 26 26 30 26 29 40 34 29 26 28 29 30 26 24 22
99 100 97 98 90 33 27 25 25 28 31 31 32 33 33 32 32 29 27 28 29 29 28 33 39 40 42 32 33 32 31 33 28 25 23 24 29 38 39 44 38 32 29 28 29 26 24
100 100 99 97 99 97 35 26 24 25 30 28 24 24 26 28 27 27 25 28 30 27 28 31 34 44 53 44 40 34 31 31 33 29 28 33 45 44 54 59 52 32 26 26 27 29 24
99 99 99 100 100 99 94 27 23 25 26 27 19 21 24 24 25 25 30 28 36 46 30 41 42 51 52 42 36 38 33 37 31 28 31 44 44 56 38 43 32 28 24 21 30 30 27
92 99 100 98 96 99 84 36 23 23 26 25 20 21 21 22 25 28 29 36 38 40 31 36 38 32 33 42 38 40 34 40 36 36 38 50 46 40 38 32 31 24 23 27 29 33 30
97 96 99 99 98 100 96 27 34 21 21 22 21 21 20 24 25 26 32 39 36 32 36 28 31 36 38 40 42 49 53 55 45 46 49 51 42 39 34 44 44 50 31 35 34 37 32
97 96 97 99 100 98 96 35 24 22 21 22 22 22 17 24 27 32 34 34 35 39 69 32 30 27 31 35 34 30 38 52 52 42 46 51 42 36 42 43 46 32 49 42 36 36 33
100 100 98 89 85 93 74 74 44 33 25 23 22 24 21 23 25 40 35 34 36 44 53 30 25 23 25 37 29 23 28 54 58 52 37 49 48 49 48 52 51 45 43 45 47 63 52
99 100 93 75 60 59 56 47 43 40 37 33 29 22 26 30 26 36 34 37 49 70 52 38 28 28 28 26 26 26 28 42 47 44 50 52 49 56 51 50 53 50 51 63 72 70 55
95 88 73 63 59 55 54 49 41 34 33 38 36 25 31 31 41 29 33 51 72 63 27 42 38 30 28 32 25 34 29 35 44 42 33 54 59 54 52 49 49 43 54 59 55 61 49
88 76 75 69 60 58 54 46 34 31 35 34 36 28 40 37 34 38 43 47 40 30 32 28 32 31 30 30 30 36 30 39 34 53 56 53 48 55 58 54 49 63 56 66 32 41 55
80 74 69 63 59 57 52 48 34 31 35 37 34 36 47 50 37 40 45 68 42 35 30 31 30 36 31 28 35 33 39 45 34 36 32 49 49 59 62 58 52 43 43 46 72 91 68
74 75 65 60 57 54 54 46 31 35 34 36 40 41 50 44 32 39 53 49 33 39 37 31 26 30 43 33 33 30 30 33 31 34 36 39 52 56 63 56 51 46 50 47 72 18 31
79 67 66 60 57 53 50 45 33 36 44 42 46 52 62 45 42 54 61 39 39 37 46 38 26 24 28 25 27 29 26 34 33 31 26 28 33 49 60 63 56 63 69 69 59 67 57
76 78 73 68 59 54 50 45 40 34 42 59 60 30 66 47 44 62 47 37 36 34 42 37 32 26 24 25 24 30 25 23 34 27 19 31 30 43 32 48 49 46 44 50 64 47 84
85 85 78 74 70 62 53 46 38 31 43 51 61 61 68 55 46 39 40 32 39 37 39 32 30 30 28 26 24 32 36 40 34 30 31 28 31 53 41 53 52 58 58 44 63 73 84
84 89 91 83 75 68 61 50 44 32 39 48 56 41 45 63 55 36 34 33 33 39 35 32 33 31 29 29 28 38 42 43 39 40 49 38 42 35 34 25 61 56 54 60 46 80 71
80 79 77 88 77 70 65 58 46 38 33 43 66 53 51 42 38 40 39 32 34 32 39 36 34 30 29 28 31 32 42 54 48 46 46 42 42 52 50 48 59 51 46 62 68 50 59
81 86 96 96 86 82 76 64 56 43 28 49 47 42 55 59 50 36 43 39 33 35 32 34 31 38 37 33 28 28 37 45 41 61 48 58 40 58 58 51 58 56 56 53 55 48 54
80 82 100 93 90 94 82 74 68 53 38 55 76 77 58 45 51 38 37 36 37 35 35 37 38 39 43 40 35 32 40 41 40 57 58 63 56 69 73 61 59 67 58 49 55 56 50
91 89 93 90 92 90 87 74 73 70 64 60 72 82 52 37 56 45 39 39 38 39 30 40 42 44 38 39 41 44 49 53 53 59 50 73 64 68 84 57 70 36 36 47 47 51 54
95 98 97 96 94 97 96 85 82 79 75 74 72 74 73 51 56 54 52 48 42 44 47 45 46 45 47 45 55 54 57 56 60 63 69 59 65 69 84 89 62 41 43 58 54 66 58
96 95 98 99 99 97 96 95 87 76 79 80 88 81 82 69 63 47 55 53 57 60 57 55 52 52 50 65 62 66 63 51 52 72 72 68 60 59 88 92 89 50 45 41 40 83 70
99 95 95 95 95 95 96 97 93 84 63 73 94 100 86 89 77 66 73 65 63 69 71 68 61 59 55 80 84 88 79 54 62 71 87 91 85 79 72 78 77 54 52 43 60 70 86
90 93 94 94 95 95 96 96 96 93 68 63 100 98 100 94 87 73 67 71 72 76 73 64 65 72 81 83 84 82 94 76 63 62 80 81 89 95 79 88 85 80 60 53 84 83 90
87 92 93 91 91 90 89 89 88 87 85 57 77 67 79 100 95 87 80 73 66 63 72 72 70 73 72 78 86 88 92 88 78 82 63 68 60 70 69 75 91 93 93 95 96 93 95

GFSGBSN_925_rhum_210.txt.gz
RH
98 96 97 52 38 32 28 28 36 42 47 45 47 48 51 52 53 55 60 63 64 62 60 53 52 45 52 59 56 28 26 28 30 46 47 56 49 40 36 36 33 30 33 27 24 25 25
98 99 98 80 37 35 26 26 30 33 38 42 41 40 42 44 45 46 48 53 53 50 49 45 45 48 52 57 29 27 28 28 29 43 44 50 49 40 40 43 31 32 28 25 24 24 23
99 99 100 98 41 35 33 28 26 28 34 35 36 38 36 38 37 40 39 39 40 39 39 37 40 48 43 45 30 29 31 29 31 35 40 40 42 37 33 36 28 27 27 25 25 24 23
90 100 99 100 97 42 35 35 26 25 28 28 30 32 34 34 33 34 34 34 34 35 37 36 43 46 63 32 32 30 32 30 28 30 30 29 32 39 36 31 31 29 29 29 26 24 23
88 98 100 100 97 96 80 50 31 25 26 28 28 27 27 29 29 30 29 30 33 34 31 36 38 47 54 41 32 33 36 29 30 28 27 29 30 38 32 40 46 33 34 29 27 28 25
97 95 100 100 99 99 97 64 57 25 22 27 26 24 24 26 25 27 29 28 33 37 37 33 37 50 48 48 37 38 37 35 32 33 32 36 43 46 56 61 57 38 27 27 27 30 25
95 100 99 99 99 100 98 65 34 33 22 24 24 23 26 24 24 25 30 31 39 46 32 39 40 45 54 46 42 39 44 38 28 28 38 43 44 56 41 42 34 31 25 25 31 34 28
94 96 98 99 99 100 100 97 55 25 24 23 21 21 24 24 25 30 30 36 36 41 33 36 40 37 32 44 43 50 44 43 38 43 38 48 42 41 42 35 28 25 25 26 32 36 28
97 98 100 100 99 98 100 99 71 37 22 22 22 20 22 23 28 31 32 34 34 34 35 27 30 33 34 37 44 55 60 57 48 44 48 45 42 39 35 47 40 46 28 34 33 30 34
100 99 99 100 100 98 100 100 86 57 26 21 21 23 23 27 30 31 36 33 36 40 70 38 30 27 28 34 43 36 78 58 49 42 48 50 46 39 39 43 49 33 48 39 30 36 32
95 95 95 85 76 64 93 98 91 58 43 33 26 22 24 24 29 42 37 37 38 42 67 30 26 24 30 36 31 35 79 53 57 49 45 52 50 45 47 52 53 47 46 47 46 62 45
100 99 91 67 58 56 56 61 99 59 37 40 36 27 27 31 27 30 32 39 48 68 50 37 29 31 29 28 27 34 37 44 56 50 53 55 50 57 50 55 55 56 44 61 66 65 55
94 87 77 64 58 54 50 46 58 78 38 33 39 27 30 30 40 32 34 48 69 80 28 42 36 31 29 32 27 32 29 34 69 54 42 47 58 55 54 46 45 38 55 62 60 66 52
84 73 64 62 60 56 52 42 44 39 36 39 40 29 43 37 35 37 38 52 46 28 31 29 33 31 29 28 34 36 30 38 34 57 54 56 52 58 63 56 44 54 60 68 39 46 59
67 66 62 58 56 55 53 48 35 48 39 38 35 38 50 48 36 39 50 69 40 30 33 31 30 33 29 28 36 33 39 44 34 38 31 43 41 59 64 58 52 44 51 43 71 90 64
73 66 63 60 56 54 51 46 38 44 38 36 41 43 59 46 33 35 50 46 35 39 38 32 27 29 40 32 33 27 32 34 31 34 37 42 49 59 64 53 54 43 48 47 74 18 30
77 78 76 71 66 59 53 49 43 38 50 45 46 50 64 46 42 50 57 38 41 38 44 36 26 24 28 24 27 28 28 32 33 32 26 29 34 46 58 63 56 61 68 65 60 65 54
80 86 84 75 70 66 61 51 46 34 42 62 55 33 68 45 45 64 43 38 35 36 44 37 30 25 24 24 23 29 25 25 33 27 19 29 30 55 37 49 47 47 44 46 63 44 85
79 83 83 83 71 67 60 58 51 44 39 52 61 61 71 59 43 39 41 34 40 39 40 34 33 30 28 26 26 29 35 39 36 29 30 33 28 53 43 57 56 62 53 48 61 71 84
78 73 79 98 91 75 57 54 51 49 39 51 50 42 46 62 54 36 35 33 33 40 36 34 32 31 28 28 29 36 41 44 39 37 48 34 37 28 31 24 57 56 61 56 43 76 66
76 73 72 96 95 95 72 57 56 49 39 48 65 46 50 41 37 41 38 36 36 37 39 37 38 31 30 32 33 32 41 50 48 51 46 41 33 45 42 44 56 49 47 65 61 48 52
95 94 95 89 97 94 78 67 59 53 43 49 44 47 60 58 54 40 43 45 36 35 37 35 33 38 37 30 28 35 44 50 44 59 43 60 43 47 54 49 53 59 57 53 58 50 48
91 90 90 91 97 99 86 73 71 67 51 61 78 81 55 43 55 41 38 35 39 36 39 34 35 42 44 40 34 30 36 41 42 60 58 62 55 62 65 61 59 68 60 51 54 57 51
98 94 95 94 88 100 100 99 91 78 81 76 78 83 54 44 59 49 40 42 40 42 31 40 41 40 37 42 44 46 49 51 55 58 50 70 57 63 82 56 75 37 39 46 52 54 55
98 97 97 98 98 97 99 100 98 83 73 85 84 81 74 60 54 49 50 48 42 44 46 44 47 45 47 46 53 52 54 48 62 67 68 56 62 66 83 89 63 45 47 58 56 63 62
97 98 97 96 96 95 95 96 96 90 58 75 100 95 88 75 68 52 49 52 56 58 56 53 53 53 54 66 61 66 62 50 50 76 79 68 60 62 89 89 84 51 46 46 48 71 73
93 93 91 90 92 92 92 92 91 89 73 58 100 98 94 91 80 67 70 62 60 65 66 68 62 61 56 79 79 85 77 51 61 72 90 91 88 80 73 82 74 54 56 53 65 70 86
87 87 88 90 90 89 88 88 88 86 83 53 90 81 98 97 87 74 70 73 74 78 78 69 69 75 82 82 84 86 91 75 67 64 82 82 90 96 82 91 87 92 66 57 85 92 94
89 84 85 90 89 87 86 85 85 83 81 68 54 38 72 99 97 92 82 78 70 65 76 76 72 75 73 78 83 84 90 91 80 80 66 68 62 73 70 73 95 95 91 89 87 88 98